Location: Seven Hills
(41.3953°N, 81.6762°W)
Time: 16:30:58
(UTC+00:00)

Daily predictions for brighter satellites

Satellite Brightness Start Highest point End
(mag) Time Altitude Azimuth Time Altitude Azimuth Time Altitude Azimuth
SL-4 R/B 2.8 23:25:19 10° NW 23:29:57 46° NNE 23:34:20 10° E
Cosmos 1802 Rocket 4.1 23:24:14 10° S 23:30:23 65° E 23:36:40 10° NNE
STARLINK-81 4.1 23:26:52 10° SSW 23:30:41 43° SE 23:34:30 10° ENE
STARLINK-34 3.4 23:27:22 10° SW 23:30:51 57° SE 23:34:20 10° ENE
YAOGAN 6 2.6 23:27:58 10° S 23:31:29 82° W 23:35:00 10° NNW
Cosmos 921 Rocket 4.3 23:28:10 10° SE 23:31:33 21° E 23:34:57 10° NE
Cosmos 1862 4.0 23:28:17 10° SSE 23:31:50 32° E 23:35:24 10° NNE
STARLINK-54 3.9 23:28:37 10° SSW 23:32:30 50° SE 23:36:24 10° ENE
STARLINK 1040 3.6 23:31:19 10° SSW 23:33:50 30° SE 23:36:23 10° ENE
STARLINK-77 4.0 23:30:08 10° SSW 23:33:58 47° SE 23:37:51 10° ENE
Lacrosse 4 Rocket 1.4 23:30:25 10° SSW 23:34:34 81° ESE 23:38:51 10° NNE
OE (NEXTSAT) 4.5 23:31:12 10° SW 23:34:38 66° SSE 23:38:07 10° ENE
STARLINK-25 3.9 23:31:45 10° SSW 23:35:38 48° SE 23:39:31 10° ENE
YAOGAN 1 2.9 23:32:10 10° SE 23:36:15 43° ENE 23:40:21 10° N
Cosmos 292 Rocket 3.8 23:32:27 10° SSW 23:37:16 82° ESE 23:42:06 10° NNE
STARLINK-71 3.7 23:33:32 10° SW 23:37:27 56° SE 23:41:24 10° ENE
STARLINK-1010 3.9 23:34:45 10° SSW 23:37:27 29° SE 23:40:11 10° ENE
STARLINK-79 3.8 23:35:02 10° SSW 23:38:56 52° SE 23:42:51 10° ENE
STARLINK-78 3.8 23:36:39 10° SW 23:40:34 54° SE 23:44:31 10° ENE
Abrixas rocket 1.9 23:37:54 10° WNW 23:40:52 87° SSW 23:43:49 10° ESE
STARLINK-57 3.7 23:38:21 10° SW 23:42:17 59° SE 23:46:16 10° ENE
STARLINK-1008 3.7 23:40:45 10° SSW 23:43:35 34° SE 23:46:15 11° ENE
STARLINK-49 3.7 23:39:55 10° SW 23:43:52 58° SE 23:47:49 10° ENE
SKYMED 2 3.7 23:39:44 10° N 23:44:06 83° WNW 23:48:26 10° SSW
STARLINK-1016 3.6 23:41:53 10° SSW 23:44:45 35° SE 23:47:23 12° ENE
Cosmos 1340 4.4 23:43:34 10° ESE 23:45:19 13° E 23:47:05 10° ENE
Cosmos 1633 Rocket 3.8 23:41:38 10° SSE 23:45:26 31° E 23:49:16 10° NNE
STARLINK-27 3.7 23:41:35 10° SW 23:45:32 60° SE 23:49:30 10° ENE
STARLINK-1025 3.6 23:42:42 10° SSW 23:45:35 36° SE 23:48:11 12° ENE
Envisat 4.2 23:40:59 10° S 23:45:52 48° W 23:50:48 10° NNW
STARLINK-1017 3.6 23:43:41 10° SSW 23:46:35 37° SE 23:49:10 12° ENE
STARLINK-74 3.6 23:43:12 10° SW 23:47:10 62° SE 23:51:07 10° ENE
Cosmos 1238 Rocket 4.0 23:41:43 10° S 23:47:46 79° E 23:54:25 10° N
Meteor 1-10 Rocket 4.3 23:42:46 10° N 23:48:19 56° ENE 23:53:45 10° SSE
Cosmos 1666 Rocket 4.0 23:44:21 10° SSE 23:48:33 42° E 23:52:47 10° NNE
STARLINK-39 3.6 23:44:51 10° SW 23:48:49 64° SE 23:52:44 10° ENE
STARLINK-1048 3.5 23:46:42 10° SSW 23:49:38 40° SE 23:52:06 13° ENE
BREEZE-M DEB (TANK) 3.8 23:38:27 10° WNW 23:50:08 85° NNE 23:53:31 10° ESE
STARLINK-1028 3.4 23:47:11 10° SSW 23:50:09 41° SE 23:52:38 14° ENE
STARLINK-1029 4.0 23:47:24 10° SSW 23:50:11 29° SE 23:52:21 14° ENE
STARLINK-31 3.6 23:46:29 10° SW 23:50:28 67° SE 23:54:19 11° ENE
STARLINK-1049 3.4 23:47:43 10° SSW 23:50:39 41° SE 23:53:04 14° ENE
CZ-2D R/B 3.5 23:47:18 10° SSE 23:51:03 48° ENE 23:54:48 10° N
STARLINK-1021 3.4 23:48:14 10° SSW 23:51:14 42° SE 23:53:40 14° ENE
STARLINK-1051 3.4 23:48:45 10° SSW 23:51:44 42° SE 23:54:08 14° ENE
Cosmos 1943 Rocket 2.6 23:46:49 10° S 23:51:58 40° ESE 23:57:07 10° NE
STARLINK-69 3.5 23:48:18 10° SW 23:52:18 76° SE 23:56:09 11° NE
STARLINK-1019 3.4 23:49:22 10° SSW 23:52:22 43° SE 23:54:46 14° ENE
STARLINK-1012 3.3 23:50:28 10° SSW 23:53:28 44° SE 23:55:50 15° ENE
STARLINK-21 3.5 23:49:49 10° SW 23:53:48 72° SE 23:57:33 12° NE
Cosmos 1346 Rocket 4.4 23:52:07 10° ESE 23:54:17 14° E 23:54:57 14° ENE
STARLINK-45 3.5 23:51:37 10° SW 23:55:38 83° SE 23:59:22 12° NE
STARLINK-1026 3.2 23:52:39 10° SSW 23:55:41 47° SE 23:57:59 16° ENE
STARLINK-1013 3.2 23:53:47 10° SSW 23:56:50 49° SE 23:59:06 16° ENE
